Location: Brachbach
(49.1847°N, 9.7240°E)
Time: 06:43:07
(UTC+00:00)

PCSat - Pass Details

Date: 19 March 2026
Orbit: 780 x 790 km, 67.1° (Epoch: 13 April)

Event Time Altitude Azimuth Distance (km) Brightness Sun altitude
Exits shadow 23:31:31 17° 343° (NNW) 1,912 12.0 -41.1°
Drops below altitude 10° 23:34:30 10° 16° (NNE) 2,365 12.6 -41.0°
Sets 23:37:47 0° 37° (NE) 3,297 13.4 -41.0°
